STARLINK-35777

Last updated on Fri Dec 19 2025 00:02:09 GMT+0000 (Coordinated Universal Time)

1 66975U 25288S 25352.58336806 -.01434652 00000+0 -63841-2 0 9994 2 66975 43.0015 131.3401 0001432 272.9011 324.4981 15.86293647 2771
UTC large
Height (km)
Speed (km/s)
/
Latitude / Longitude
Inclination (degrees)
Orbital Period (minutes)
Azimuth
Elevation
Range (km)
Doppler Factor

Next 0 passes for location: London (51.5072 / 0.1276)

Sorry there are no passes over London.